Weather History for Oakland, MD

Change the Weather History Date:

Thursday, January 31, 2013

  Actual Average (KMGW) Record (KMGW)
Temperature  
Mean Temperature 30 °F 32 °F  
Max Temperature 42 °F 40 °F 75 °F (2002)
Min Temperature 17 °F 24 °F -4 °F (1965)
Degree Days  
Heating Degree Days 36 33  
Month to date heating degree days 1045  
Since 1 July heating degree days 3027  
Cooling Degree Days 0 0  
Month to date cooling degree days 0  
Year to date cooling degree days 0  
Moisture  
Dew Point 20 °F    
Average Humidity 91    
Maximum Humidity 100    
Minimum Humidity 68    
Precipitation  
Precipitation 0.00 in 0.09 in 1.20 in (1950)
Month to date precipitation 2.81  
Year to date precipitation 2.81  
Sea Level Pressure  
Sea Level Pressure 29.55 in    
Wind  
Wind Speed 18 mph (West)    
Max Wind Speed 29 mph    
Max Gust Speed 47 mph    
Visibility 5 miles    
Events Fog    
T = Trace of Precipitation, MM = Missing Value Source: NWS Daily Summary

Daily Weather History Graph

Daily Weather History Graph

Search for Another Location

Airport:

Trip Planner

Search our weather history database for the weather conditions in past years. The results will help you decide how hot, cold, wet, or windy it might be!

Date:

Astronomy

Jan. 31, 2013 Rise Set
Actual Time 7:25 AM EST 5:36 PM EST
Civil Twilight 6:57 AM EST 6:05 PM EST
Nautical Twilight 6:24 AM EST 6:37 PM EST
Astronomical Twilight 5:53 AM EST 7:08 PM EST
Moon 10:35 PM EST (1/31) 9:25 AM EST (1/31)
Length of Visible Light 11h 07m
Length of Day
10h 10m
Waning Gibbous, 80% of the Moon is Illuminated
Jan 31
Waning Gibbous
Feb 3
Last Quarter
Feb 10
New
Feb 17
First Quarter
Feb 25
Full

Hourly Weather History & Observations

Time (EST) Temp. Windchill Dew Point Humidity Pressure Visibility Wind Dir Wind Speed Gust Speed Precip Events Conditions
12:05 AM 42.8 °F 34.8 °F 42.8 °F 100% 29.29 in 7.0 mi SW 17.3 mph 27.6 mph N/A   Overcast
12:45 AM 39.2 °F 29.8 °F 39.2 °F 100% 29.26 in 7.0 mi WSW 18.4 mph 27.6 mph N/A   Overcast
1:10 AM 37.4 °F 28.2 °F 37.4 °F 100% 29.24 in 7.0 mi WSW 16.1 mph 26.5 mph N/A   Overcast
1:50 AM 35.6 °F 25.5 °F 35.6 °F 100% 29.27 in 4.0 mi West 17.3 mph 47.2 mph N/A   Overcast
2:10 AM 32.0 °F 20.8 °F 32.0 °F 100% 29.30 in 3.0 mi West 17.3 mph 35.7 mph N/A   Overcast
2:35 AM 32.0 °F 20.1 °F 32.0 °F 100% 29.31 in 2.5 mi West 19.6 mph 32.2 mph N/A   Overcast
3:00 AM 32.0 °F 19.5 °F 32.0 °F 100% 29.31 in 1.2 mi West 21.9 mph 32.2 mph N/A   Overcast
3:20 AM 32.0 °F 20.8 °F 32.0 °F 100% 29.32 in 1.0 mi West 17.3 mph 27.6 mph N/A   Overcast
3:45 AM 28.4 °F 15.4 °F 28.4 °F 100% 29.32 in 0.8 mi West 19.6 mph 47.2 mph N/A   Overcast
4:05 AM 28.4 °F 15.8 °F 28.4 °F 100% 29.34 in 1.5 mi West 18.4 mph 29.9 mph N/A   Overcast
4:25 AM 28.4 °F 13.5 °F 28.4 °F 100% 29.35 in 1.8 mi West 26.5 mph 39.1 mph N/A   Overcast
4:45 AM 28.4 °F 15.8 °F 28.4 °F 100% 29.37 in 7.0 mi West 18.4 mph 34.5 mph N/A   Overcast
5:10 AM 26.6 °F 13.4 °F 26.6 °F 100% 29.39 in 5.0 mi West 18.4 mph 32.2 mph N/A   Overcast
5:30 AM 26.6 °F 13.8 °F 26.6 °F 100% 29.40 in 5.0 mi West 17.3 mph 34.5 mph N/A   Overcast
5:50 AM 26.6 °F 12.7 °F 24.8 °F 93% 29.41 in 7.0 mi West 20.7 mph 33.4 mph N/A   Overcast
6:10 AM 24.8 °F 10.3 °F 24.8 °F 100% 29.42 in 5.0 mi WSW 20.7 mph 32.2 mph N/A   Overcast
6:55 AM 24.8 °F 12.4 °F 21.2 °F 86% 29.46 in 7.0 mi West 15.0 mph 33.4 mph N/A   Overcast
7:35 AM 23.0 °F 10.1 °F 23.0 °F 100% 29.48 in 3.0 mi West 15.0 mph 28.8 mph N/A   Overcast
8:00 AM 23.0 °F 10.1 °F 23.0 °F 100% 29.49 in 0.2 mi West 15.0 mph 31.1 mph N/A Fog Light Freezing Fog
8:20 AM 23.0 °F 8.7 °F 21.2 °F 93% 29.50 in 2.5 mi West 18.4 mph 34.5 mph N/A   Overcast
8:40 AM 23.0 °F 11.1 °F 21.2 °F 93% 29.50 in 7.0 mi West 12.7 mph 26.5 mph N/A   Overcast
9:00 AM 23.0 °F 8.7 °F 21.2 °F 93% 29.51 in 3.0 mi West 18.4 mph 36.8 mph N/A   Overcast
9:25 AM 21.2 °F 6.0 °F 21.2 °F 100% 29.52 in 0.8 mi West 19.6 mph 35.7 mph N/A   Overcast
9:45 AM 23.0 °F 8.7 °F 21.2 °F 93% 29.51 in 5.0 mi West 18.4 mph 35.7 mph N/A   Overcast
10:05 AM 21.2 °F 6.8 °F 21.2 °F 100% 29.52 in 1.2 mi West 17.3 mph 36.8 mph N/A   Overcast
10:25 AM 21.2 °F 7.3 °F 21.2 °F 100% 29.54 in 2.5 mi West 16.1 mph 27.6 mph N/A   Overcast
10:50 AM 23.0 °F 7.2 °F 19.4 °F 86% 29.55 in 10.0 mi West 23.0 mph 36.8 mph N/A   Overcast
11:10 AM 21.2 °F 3.9 °F 17.6 °F 86% 29.57 in 4.0 mi West 26.5 mph 35.7 mph N/A   Overcast
11:30 AM 21.2 °F 7.3 °F 17.6 °F 86% 29.58 in 4.0 mi West 16.1 mph 32.2 mph N/A   Overcast
11:50 AM 21.2 °F 6.4 °F 15.8 °F 80% 29.58 in 3.0 mi West 18.4 mph 38.0 mph N/A   Haze
12:15 PM 19.4 °F 4.5 °F 19.4 °F 100% 29.59 in 0.2 mi West 17.3 mph 29.9 mph N/A Fog Light Freezing Fog
12:35 PM 21.2 °F 5.2 °F 17.6 °F 86% 29.58 in 3.0 mi West 21.9 mph 32.2 mph N/A   Overcast
12:55 PM 21.2 °F 4.9 °F 19.4 °F 93% 29.57 in 0.5 mi West 23.0 mph 35.7 mph N/A Fog Light Freezing Fog
1:15 PM 21.2 °F 3.3 °F 21.2 °F 100% 29.58 in 0.5 mi West 28.8 mph 41.4 mph N/A Fog Light Freezing Fog
1:40 PM 19.4 °F 2.1 °F 19.4 °F 100% 29.58 in 0.5 mi West 24.2 mph 38.0 mph N/A Fog Light Freezing Fog
2:00 PM 21.2 °F 6.8 °F 17.6 °F 86% 29.59 in 1.8 mi West 17.3 mph 38.0 mph N/A   Overcast
2:20 PM 21.2 °F 6.0 °F 17.6 °F 86% 29.59 in 3.0 mi West 19.6 mph 29.9 mph N/A   Haze
2:40 PM 21.2 °F 3.9 °F 17.6 °F 86% 29.60 in 2.0 mi West 26.5 mph 38.0 mph N/A   Overcast
3:05 PM 21.2 °F 4.9 °F 19.4 °F 93% 29.62 in 0.5 mi West 23.0 mph 35.7 mph N/A Fog Light Freezing Fog
3:25 PM 19.4 °F 4.5 °F 15.8 °F 86% 29.63 in 1.2 mi West 17.3 mph 35.7 mph N/A   Overcast
3:45 PM 17.6 °F 3.2 °F 17.6 °F 100% 29.65 in 0.5 mi West 15.0 mph 34.5 mph N/A Fog Light Freezing Fog
4:05 PM 17.6 °F -0.3 °F 12.2 °F 79% 29.67 in 5.0 mi West 24.2 mph 35.7 mph N/A   Haze
4:30 PM 17.6 °F 2.7 °F 8.6 °F 68% 29.68 in 10.0 mi West 16.1 mph 27.6 mph N/A   Overcast
4:50 PM 17.6 °F 4.3 °F 8.6 °F 68% 29.69 in 10.0 mi West 12.7 mph 26.5 mph N/A   Overcast
5:10 PM 17.6 °F 4.3 °F 8.6 °F 68% 29.69 in 10.0 mi West 12.7 mph 24.2 mph N/A   Overcast
5:30 PM 17.6 °F 4.3 °F 12.2 °F 79% 29.70 in 4.0 mi West 12.7 mph 28.8 mph N/A   Haze
5:55 PM 17.6 °F 4.3 °F 10.4 °F 73% 29.71 in 7.0 mi West 12.7 mph 24.2 mph N/A   Mostly Cloudy
6:15 PM 17.6 °F 5.0 °F 10.4 °F 73% 29.71 in 10.0 mi West 11.5 mph 23.0 mph N/A   Mostly Cloudy
6:35 PM 17.6 °F 3.7 °F 10.4 °F 73% 29.71 in 10.0 mi West 13.8 mph 19.6 mph N/A   Scattered Clouds
6:55 PM 17.6 °F 3.7 °F 8.6 °F 68% 29.71 in 10.0 mi WSW 13.8 mph 24.2 mph N/A   Scattered Clouds
7:20 PM 17.6 °F 4.3 °F 10.4 °F 73% 29.71 in 10.0 mi WSW 12.7 mph 27.6 mph N/A   Clear
7:40 PM 17.6 °F 2.2 °F 10.4 °F 73% 29.71 in 10.0 mi WSW 17.3 mph 25.3 mph N/A   Clear
8:00 PM 17.6 °F 3.2 °F 12.2 °F 79% 29.71 in 10.0 mi WSW 15.0 mph 25.3 mph N/A   Clear
8:20 PM 17.6 °F 4.3 °F 12.2 °F 79% 29.71 in 10.0 mi West 12.7 mph 24.2 mph N/A   Scattered Clouds
8:45 PM 17.6 °F 4.3 °F 12.2 °F 79% 29.71 in 10.0 mi West 12.7 mph 23.0 mph N/A   Overcast
9:05 PM 17.6 °F 2.2 °F 14.0 °F 86% 29.72 in 7.0 mi WSW 17.3 mph 25.3 mph N/A   Overcast
9:25 PM 17.6 °F 3.2 °F 14.0 °F 86% 29.72 in 10.0 mi WSW 15.0 mph 28.8 mph N/A   Mostly Cloudy
9:45 PM 17.6 °F 4.3 °F 17.6 °F 100% 29.73 in 10.0 mi WSW 12.7 mph 23.0 mph N/A   Mostly Cloudy
10:10 PM 17.6 °F 5.0 °F 17.6 °F 100% 29.72 in 1.8 mi WSW 11.5 mph 18.4 mph N/A   Overcast
10:30 PM 17.6 °F 3.7 °F 17.6 °F 100% 29.71 in 1.0 mi WSW 13.8 mph 24.2 mph N/A   Overcast
10:50 PM 17.6 °F 1.3 °F 17.6 °F 100% 29.71 in 1.5 mi WSW 19.6 mph 32.2 mph N/A   Overcast
11:10 PM 17.6 °F 2.2 °F 17.6 °F 100% 29.71 in 7.0 mi West 17.3 mph 21.9 mph N/A   Overcast
11:35 PM 17.6 °F 3.7 °F 17.6 °F 100% 29.70 in 2.5 mi West 13.8 mph 25.3 mph N/A   Overcast
11:55 PM 17.6 °F 4.3 °F 17.6 °F 100% 29.69 in 2.0 mi West 12.7 mph 20.7 mph N/A   Overcast